This is the latest recevied weather packets stored in our database for station/object VA3WWD-2. If no packets are shown the sender has not sent any weather packets the latest 10 day(s).
| Time | Temp. | Humidity | Pressure | Rain* | Wind** | Luminosity | Snow |
|---|---|---|---|---|---|---|---|
| 1778204405 | 3.89° C | 41% | - | 0 mm | 0 m/s | - | - |
| 1778204107 | 5° C | 42% | - | 0 mm | 0 m/s | - | - |
| 1778203806 | 5° C | 41% | - | 0 mm | 0 m/s | - | - |
| 1778203508 | 4.44° C | 40% | - | 0 mm | 0 m/s | - | - |
| 1778203210 | 4.44° C | 40% | - | 0 mm | 0 m/s | - | - |
| 1778202909 | 4.44° C | 40% | - | 0 mm | 0 m/s | - | - |
| 1778202611 | 5° C | 40% | - | 0 mm | 0 m/s | - | - |
| 1778202313 | 5.56° C | 40% | - | 0 mm | 0 m/s | - | - |
| 1778202012 | 5° C | 41% | - | 0 mm | 0 m/s | - | - |
| 1778201714 | 5.56° C | 44% | - | 0 mm | 0 m/s | - | - |
| 1778201416 | 6.11° C | 43% | - | 0 mm | 0 m/s | - | - |
| 1778201115 | 5.56° C | 43% | - | 0 mm | 0 m/s | - | - |
| 1778200818 | 5.56° C | 42% | - | 0 mm | 0 m/s | - | - |
| 1778200520 | 6.11° C | 42% | - | 0 mm | 0 m/s | - | - |
| 1778200219 | 5.56° C | 41% | - | 0 mm | 0 m/s | - | - |
| 1778199921 | 5.56° C | 40% | - | 0 mm | 0 m/s | - | - |
| 1778199322 | 5.56° C | 34% | - | 0 mm | 0 m/s | - | - |
| 1778198425 | 5.56° C | 32% | - | 0 mm | 0 m/s | - | - |
| 1778198127 | 6.11° C | 32% | - | 0 mm | 0 m/s | - | - |
| 1778197829 | 5.56° C | 32% | - | 0 mm | 0 m/s | - | - |
| 1778197528 | 6.11° C | 31% | - | 0 mm | 0 m/s | - | - |
| 1778197230 | 6.11° C | 32% | - | 0 mm | 0 m/s | - | - |
| 1778196932 | 6.11° C | 31% | - | 0 mm | 0 m/s | - | - |
| 1778196333 | 6.67° C | 30% | - | 0 mm | 0 m/s | - | - |
| 1778196035 | 6.67° C | 30% | - | 0 mm | 0 m/s | - | - |
* Rain latest hour (hover to see other rain measurements)
** Current wind speed in m/s (hover to see current wind gust speed)